Flag for U.S.A. Weather past 2 weeks in Philadelphia, Pennsylvania, U.S.A.

Now
69 °F

Broken clouds.


Feels Like: 69 °F
Forecast: 54 / 69 °F
Wind: 14 mph from Northwest

Location: Philadelphia International Airport

Current Time: Sep 22, 2014 at 6:36:01 PM

Latest Report: Sep 22, 2014 at 5:54 PM


Visibility: 10 mi

Pressure: 30.03 "Hg

Humidity: 44%

Dew point: 46 °F

Location of PhiladelphiaLocation

Historic Weather in Philadelphia — Graph

°F

Philadelphia temperature yesterday

Maximum temperature yesterday: 78 °F (at 4:54 PM)
Minimum temperature yesterday: 65 °F (at 4:54 AM)
Average temperature yesterday: 72 °F

Past Weeks' High & Low Weather Summary

 TemperatureHumidityPressure
High84 °F (Sep 11, 2:54 PM)93% (Sep 21, 5:54 AM)30.35 "Hg (Sep 21, 5:54 AM)
Low53 °F (Sep 14, 6:54 AM)35% (Sep 7, 4:54 PM)29.64 "Hg (Sep 21, 5:54 PM)
Average68 °F66%30.09 "Hg
* Reported Sep 7 4:54 PM — Sep 22 4:54 PM, Philadelphia, Weather by CustomWeather, © 2014

Note: Actual official high and low records may vary slightly from our data, if they occured in-between our weather recording intervals... More about our weather records

Advertising

Philadelphia weather history for previous 24 hours

 ConditionsComfort  
Time TempWeatherWind HumidityBarometerVisibility
4:54 PM
Sep 22
70 °FBroken clouds.16 mph41%30.00 "Hg10 mi
3:54 PM69 °FPartly sunny.15 mph45%29.99 "Hg10 mi
2:54 PM70 °FPartly sunny.15 mph44%29.98 "Hg10 mi
1:54 PM70 °FPartly sunny.14 mph44%29.96 "Hg10 mi
12:54 PM69 °FPartly sunny.12 mph45%29.96 "Hg10 mi
11:54 AM70 °FScattered clouds.17 mph47%29.95 "Hg10 mi
10:54 AM68 °FScattered clouds.15 mph51%29.94 "Hg10 mi
9:54 AM67 °FPassing clouds.16 mph53%29.93 "Hg10 mi
8:54 AM66 °FPassing clouds.17 mph52%29.90 "Hg10 mi
7:54 AM64 °FPassing clouds.13 mph61%29.88 "Hg10 mi
6:54 AM63 °FPassing clouds.9 mph63%29.84 "Hg10 mi
5:54 AM63 °FClear.8 mph70%29.81 "Hg10 mi
4:54 AM65 °FPassing clouds.12 mph73%29.77 "Hg10 mi
3:54 AM68 °FPassing clouds.12 mph70%29.75 "Hg10 mi
2:54 AM70 °FPassing clouds.8 mph66%29.73 "Hg10 mi
1:54 AM71 °FPassing clouds.9 mph71%29.72 "Hg10 mi
12:54 AM73 °FPartly cloudy.14 mph66%29.69 "Hg10 mi
11:54 PM
Sep 21
73 °FMostly cloudy.9 mph69%29.67 "Hg10 mi
10:54 PM73 °FPartly cloudy.6 mph71%29.68 "Hg10 mi
9:54 PM72 °FPassing clouds.8 mph78%29.65 "Hg10 mi
8:54 PM73 °FPartly cloudy.6 mph76%29.65 "Hg10 mi
7:54 PM74 °FPartly sunny.6 mph76%29.65 "Hg10 mi
6:54 PM75 °FPartly sunny.6 mph71%29.64 "Hg10 mi
Weather by CustomWeather, © 2014

See weather overviewHow to use our weather pages